Regional Weather Roundup
Issued by NWS Sterling, VA

Home | Current Version | Previous Version | Text Only | Print | Product List | Glossary Off
Versions: 1 2 3 4 5 6 7 8 9 10 11 12 13 14 15 16 17 18 19 20 21 22 23 24 25 26 27 28 29 30 31 32 33 34 35 36 37 38 39 40 41 42 43 44 45 46 47 48 49 50

000
ASUS41 KLWX 302010
RWRLWX

REGIONAL WEATHER ROUNDUP
NATIONAL WEATHER SERVICE BALTIMORE MD/WASHINGTON DC
400 PM EDT THU JUL 30 2015

Note: "FAIR" indicates few or no clouds below 12,000 feet
with no significant weather and/or obstructions to visibility.
 TC=TEMPERATURE CELSIUS

 * =Non NWS site. Station does not report precipitation (e.g. rain,
    snow, etc.), thunder, or fog.

DCZ001-MDZ009-015-VAZ040>042-051-053>054-302100-
WASHINGTON METRO

CITY           SKY/WX    TMP DP  RH WIND       PRES   REMARKS
WASHINGTON NAT CLOUDY    81  75  82 S7        29.87F
DULLES         CLOUDY    82  76  81 SW7       29.87F
ANDREWS AFB    CLOUDY    77  74  91 SW7       29.86F
FT BELVOIR     CLOUDY    77  74  91 SE6       29.87F
COLLEGE PARK*  CLOUDY    79  77  94 CALM      29.86S
LEESBURG*      PTSUNNY   88  77  70 W5        29.88F HX 100
GAITHERSBURG*  PTSUNNY   82  73  74 W5        29.90F

$$

MDZ006>007-011-014-302100-
BALTIMORE METRO

CITY           SKY/WX    TMP DP  RH WIND       PRES   REMARKS
BWI AIRPORT    CLOUDY    80  75  84 CALM      29.85F
MD SCIENCE CTR   N/A     80  74  81 MISG      29.86F
MARTIN STATE   MOSUNNY   79  77  94 SE5       29.87F
ANNAPOLIS      LGT RAIN  78  73  84 CALM      29.86F
FORT MEADE*    CLOUDY    77  73  88 SW3       29.88S

$$

MDZ012-015-019>023-302100-
MARYLAND EASTERN SHORE

CITY           SKY/WX    TMP DP  RH WIND       PRES   REMARKS
OCEAN CITY     SUNNY     84  76  76 VRB7G20   29.87F HX  93
SALISBURY      MOSUNNY   89  72  56 SW9       29.86F HX  96
BAY BRIDGE AP*   N/A     77  73  88 CALM      29.87R
CAMBRIDGE*     PTSUNNY   88  72  58 S7        29.85F HX  94

$$

MDZ017>025-302100-
SOUTHERN MARYLAND

CITY           SKY/WX    TMP DP  RH WIND       PRES   REMARKS
PATUXENT RIVER PTSUNNY   88  73  61 SW10      29.85F HX  95
ST INIGOES     MOSUNNY   89  75  63 S9        29.85F HX  99
LEONARDTOWN*   MOSUNNY   88  72  58 S7        29.87S HX  94

$$

MDZ003>005-302100-
NORTH CENTRAL MARYLAND

CITY           SKY/WX    TMP DP  RH WIND       PRES   REMARKS
FREDERICK*     MOSUNNY   86  77  74 W5        29.88F HX  97
HAGERSTOWN APT PTSUNNY   90  66  45 W15       29.86F HX  92
WESTMINSTER*   PTSUNNY   82  79  89 W8        29.88S HX  93

$$

MDZ501>502-302100-
WESTERN MARYLAND

CITY           SKY/WX    TMP DP  RH WIND       PRES   REMARKS
OAKLAND*       MOSUNNY   75  68  78 W7        30.04F
CUMBERLAND*    MOSUNNY   88  55  33 NW9       29.94S

$$

VAZ025>031-302100-
SHENANDOAH VALLEY

CITY           SKY/WX    TMP DP  RH WIND       PRES   REMARKS
WINCHESTER*    CLOUDY    88  73  62 NW5       29.88F HX  96
FRONT ROYAL*   MOCLDY    82  77  83 NE5       29.88F HX  91
LURAY*         MOCLDY    90  73  58 NW3       29.88F HX  98
NEW MARKET*    MOCLDY    87  73  61 CALM      29.86F HX  94
STAUNTON*      PTSUNNY   90  73  57 SW7       29.92F HX  99
WAYNESBORO*    FAIR      86  73  66 SW6       29.92F HX  93

$$

WVZ021-048>050-054>055-302100-
EASTERN WEST VIRGINIA PANHANDLE

CITY           SKY/WX    TMP DP  RH WIND       PRES   REMARKS
MARTINSBURG    PTSUNNY   87  70  56 NW8       29.87F HX  92
PETERSBURG*    PTSUNNY  N/A N/A N/A W10       29.92F

$$

VAZ036>039-050-302100-
CENTRAL FOOTHILLS

CITY           SKY/WX    TMP DP  RH WIND       PRES   REMARKS
CHARLOTTESVILL PTSUNNY   88  73  61 S8        29.87F HX  95
CULPEPER*      PTSUNNY   79  75  86 SW3       29.87F
ORANGE*        PTSUNNY   82  77  83 SE5       29.89F HX  91
GORDONSVILLE*  FAIR      82  79  89 CALM      29.86F HX  93
WARRENTON*     FAIR      82  77  85 CALM      29.86F

$$

VAZ055>057-302100-
NORTH AND CENTRAL PIEDMONT

CITY           SKY/WX    TMP DP  RH WIND       PRES   REMARKS
FREDERICKSBRG* HVY RAIN  81  76  84 W24       29.90R
STAFFORD*      CLOUDY    76  73  90 NE5       29.91R THUNDER

$$

NCZ024-NYZ072-PAZ021-071-VAZ022-071-302100-
OTHER REGIONAL OBSERVATIONS

CITY           SKY/WX    TMP DP  RH WIND       PRES   REMARKS
NEW YORK CITY  CLOUDY    80  76  87 CALM      29.82F FOG
PHILADELPHIA   TSTM      79  72  79 NW8       29.84F
PITTSBURGH     MOSUNNY   86  55  34 NW13      29.95F
ROANOKE        MOSUNNY   93  67  42 W8        29.94F HX  96
RICHMOND       CLOUDY    91  74  57 S14       29.86F HX 100
RALEIGH        MOSUNNY   94  72  48 VRB6      29.88F HX 102

$$

ANZ530>537-302100-
MARINE OBSERVATIONS

STATION/POSITION TIME  TEMP    WIND        PRES
                       AIR SEA DIR/SP/G
                 (UTC) (F)     (DEG/KT/KT) (MB)
THOMAS PT LIGHT  NOT AVBL
BALT KEY BRIDGE  1900   74     240/ 10/ 11 1011.6R
COVE POINT       1900   82     180/ 15/ 17 1012.2F
LEWISETTA        1900   87 85  210/ 12/ 14 1011.1F
SOLOMONS ISLAND  1900      84                N/A
PINEY POINT      1900          230/ 12/ 13   N/A

$$




USA.gov is the U.S. government's official web portal to all federal, state and local government web resources and services.